Other Public Products
Issued by NWS Grand Forks, ND

Home | Current Version | Previous Version | Text Only | Print | Product List | Glossary Off
Versions: 1 2 3 4 5 6 7 8 9 10 11 12 13 14 15 16 17 18 19 20 21 22 23 24 25 26 27 28 29 30 31 32 33 34 35 36 37 38 39 40 41 42 43 44 45 46 47 48 49 50

584
FPUS83 KFGF 230231
OPUFGF
PRAIRIE TO PINES WEATHER ROUNDUP
NATIONAL WEATHER SERVICE EASTERN NORTH DAKOTA/GRAND FORKS ND
800 PM CST WED FEB 22 2017

 **SATELLITE DATA USED TO AUGMENT SKY COVER AT AUTOMATED STATIONS**
 *****  WEATHER ACROSS EASTERN NORTH DAKOTA  *****

CITY           SKY/WX    TMP DP  RH WIND       PRES   REMARKS
GRAND FORKS    FAIR      32  24  72 N10       29.91R WCI  24
GRAND FORKS AF FAIR      31  26  80 N12       29.91S WCI  22
GRAND CITY NWS NOT AVBL
BUXTON         NOT AVBL
DEVILS LAKE    CLOUDY    30  26  85 NW8       29.93S WCI  22
FARGO          CLOUDY    33  28  81 N12       29.89R WCI  24
WAHPETON ARPT  MOCLDY    32  28  86 N15G21    29.87R WCI  22
$$

 *****  WEATHER ACROSS CENTRAL AND WESTERN NORTH DAKOTA  *****

CITY           SKY/WX    TMP DP  RH WIND       PRES   REMARKS
JAMESTOWN      FAIR      30  25  81 N9        29.92R WCI  22
BISMARCK       CLOUDY    34  28  79 N8        29.97R
MINOT          FAIR      31  25  78 W8        29.96R WCI  23
MINOT AFB      FAIR      26  23  89 W9        29.95R WCI  17
GARRISON         N/A     25  23  92 NW7       29.96R WCI  17
WILLISTON      CLOUDY    28  25  88 NW6       30.00R WCI  22
DICKINSON      CLOUDY    28  24  85 N5        29.94R WCI  23
HETTINGER      LGT SNOW  29  27  92 NE12      29.95S FOG     WCI  19
$$

 *****  OTHER OBSERVATIONS NORTHEAST NORTH DAKOTA  *****

CITY           SKY/WX    TMP DP  RH WIND       PRES   REMARKS
WALHALLA       NOT AVBL
LANGDON        NOT AVBL
CAVALIER         N/A     28  25  86 N8        29.93R WCI  20
GRAFTON        FAIR      30  27  86 N10       29.94R WCI  21
CANDO          NOT AVBL
FORT TOTTEN      N/A     29  29  99 NW6       29.95S WCI  23
ROLLA          FAIR      23  21  93 W7        29.93R WCI  15
RUGBY            N/A     27  25  93 W8        29.95R WCI  18
 ***** THE ABOVE OBSERVATIONS ARE NON NWS ARE NOT QUALITY
        CONTROLLED AND MAY MIS-REPORT RAIN FOR SNOW...
$$

 *****  OTHER OBSERVATIONS SOUTHEAST NORTH DAKOTA *****

CITY           SKY/WX    TMP DP  RH WIND       PRES   REMARKS
COOPERSTOWN    FAIR      28  27  93 NW12      29.92R WCI  18
VALLEY CITY    FAIR      28  28 100 N10       29.93R WCI  19
OAKES          NOT AVBL
GWINNER        MOCLDY    32  30  93 N12       29.90R WCI  23
SHEYENNE NWR     N/A     32  26  78 N9        29.95S WCI  24
BUFFALO        NOT AVBL
WYNDMERE         N/A     34  30  86 N13         N/A  WCI  25
 ***** THE ABOVE OBSERVATIONS ARE NON NWS ARE NOT QUALITY
       CONTROLLED AND MAY MIS-REPORT RAIN FOR SNOW...
$$

  *****  WEATHER ACROSS NORTHERN MINNESOTA  *****

CITY           SKY/WX    TMP DP  RH WIND       PRES   REMARKS
FLAG ISLAND    FAIR      27  19  74 NW24      29.86R WCI  12
WARROAD        FAIR      27  21  80 NW5       29.87R WCI  21
ROSEAU         MOCLDY    30  25  80 N6        29.87R WCI  24
HALLOCK        FAIR      30  27  86 N12       29.91R WCI  21
THF RVR FALLS  FAIR      29  24  82 N10       29.88R WCI  20
HALSTAD          N/A     32  28  86 N12         N/A  WCI  23
FOSSTON        FAIR      28  25  86 N8        29.86R WCI  20
BAUDETTE       CLOUDY    27  20  75 NW9       29.83R WCI  18
WASKISH        FAIR      28  25  86 NW5       29.83R WCI  23
CROOKSTON      FAIR      30  28  93 N12       29.91R WCI  21
$$
  *****  WEATHER ACROSS CENTRAL AND WEST MINNESOTA  *****

CITY           SKY/WX    TMP DP  RH WIND       PRES   REMARKS
BEMIDJI        FAIR      28  24  85 NW6       29.82R WCI  22
PARK RAPIDS    CLOUDY    32  26  78 N14       29.79R WCI  22
WADENA         CLOUDY    30  28  93 N15G26    29.78R WCI  19
DETROIT LAKES  CLOUDY    32  28  86 N6G16     29.83S
MOORHEAD       CLOUDY    32  28  86 N13       29.89R WCI  22
FERGUS FALLS   CLOUDY    32  30  93 N12       29.88R WCI  23
ELBOW LAKE     CLOUDY    32  30  92 N13       29.84R WCI  22
MORRIS MN      CLOUDY    34  32  93 N17G25    29.81R WCI  23
STAPLES        CLOUDY    30  30 100 N16       29.77R WCI  19
WHEATON        CLOUDY    32  28  86 NW21G26   29.88R WCI  20
$$
  *****  WEATHER ELSEWHERE ACROSS MINNESOTA  *****

CITY           SKY/WX    TMP DP  RH WIND       PRES   REMARKS
DULUTH         LGT SNOW  34  32  92 N10       29.68S VSB 3/4
INTRNTL FALLS  FAIR      29  24  82 NW3       29.80R
ELY            LGT SNOW  32  30  93 N5        29.73R
CLOQUET        LGT SNOW  34  32  93 N12       29.70R
BRAINERD       LGT SNOW  32  32 100 N13       29.75R FOG     WCI  22
HIBBING        LGT SNOW  31  31 100 N14       29.75R FOG     WCI  21
ALEXANDRIA     CLOUDY    34  32  92 N10       29.78R
SAINT CLOUD    LGT RAIN  35  34  96 N13G24    29.71R
MINNEAPOLIS    MOCLDY    47  38  71 NW21G26   29.64R
$$

  *****  WEATHER ACROSS SOUTH DAKOTA  *****

CITY           SKY/WX    TMP DP  RH WIND       PRES   REMARKS
SIOUX FALLS    FAIR      41  37  86 N13       29.79R
BROOKINGS      CLOUDY    36  32  85 N15       29.80R
WATERTOWN      CLOUDY    32  29  88 N16       29.84R WCI  21
HURON          CLOUDY    35  31  85 N18G25    29.86R WCI  24
SISSETON         N/A     33  30  88 N23G31    29.86R WCI  21
ABERDEEN       CLOUDY    32  27  81 N12       29.91R WCI  23
MITCHELL       CLOUDY    38  35  89 N15       29.86R
PIERRE         CLOUDY    36  31  82 N15       29.88R
MOBRIDGE       CLOUDY    34  28  79 N6        29.94R
RAPID CITY     CLOUDY    35  27  72 N20G29    29.88R WCI  24
$$

  *****  SOME WEATHER IN NEARBY STATES *****

CITY           SKY/WX    TMP DP  RH WIND       PRES   REMARKS
GLASGOW MT     FAIR      29  27  92 SW3       29.99S
GREAT FALLS MT MOCLDY    30  26  85 N10       29.94R WCI  21
CHEYENNE WY    FLURRIES  32  27  81 NE9       29.81S WCI  24
SCOTTSBLUFF NE CLOUDY    46  22  38 NE12      29.82R
OMAHA NE       FAIR      55  35  47 N13       29.74R
DES MOINES IA  FAIR      59  42  53 NW9       29.70R
DAVENPORT IA   FAIR      59  50  72 W12       29.64R
CHICAGO IL     FAIR      63  54  72 S14G25    29.61R
EAU CLAIRE WI  MOCLDY    43  38  82 CALM      29.55S
LA CROSSE WI   FAIR      45  39  79 CALM      29.57R
$$

  *****  SOME NATIONAL WEATHER *****

CITY           SKY/WX    TMP DP  RH WIND       PRES   REMARKS
LA GUARDIA NY  FAIR      52  44  74 S5        29.91R
RALEIGH NC     MOCLDY    59  53  80 E3        29.95R
ATLANTA GA     MOCLDY    61  59  93 E12       29.89S
NEW ORLEANS LA FAIR      68  57  68 CALM      29.81R
OKLAHOMA CITY  MOCLDY    63  40  42 SW5       29.72R
ALBUQUERQUE NM MOCLDY    59  33  37 W10       29.87S
SALT LAKE CITY CLOUDY    33  30  88 NE9       29.84R
LOS ANGELES CA FAIR      59  50  72 W16       30.02S
BOISE ID       FLURRIES  36  28  73 NW13      29.88S
SEATTLE WA     FAIR      40  32  73 N6        30.18R
$$

*** WEATHER ACROSS MANITOBA...SASKATCHEWAN AND ONTARIO ***
                ***ONTARIO***

CITY           SKY/WX    TMP DP  RH WIND       PRES   REMARKS
GERALDTON      CLOUDY    32  25  74 NW8       29.68R WCI  25
THUNDER BAY    MOCLDY    37  28  70 N6        29.69R
SIOUX LOOKOUT  CLOUDY    30  19  64 NW10      29.74S WCI  21
TORONTO        CLOUDY    43  41  93 SE6       29.75F
BIG TROUT LK   LGT SNOW   7   0  72 NW12G18   29.81S WCI  -9
PICKLE LAKE    FLURRIES  23  14  68 NW7       29.73R WCI  15
DRYDEN         CLOUDY    30  21  69 NW8       29.76R WCI  23
KENORA         CLOUDY    27  19  74 N13G20    29.83R WCI  16
$$
                *** MANITOBA***

CITY           SKY/WX    TMP DP  RH WIND       PRES   REMARKS
BRANDON        MOCLDY    28  21  74 N16       29.93S WCI  17
DAUPHIN        CLOUDY    25  19  80 NE13      29.98R WCI  13
ISLAND LAKE    FLURRIES   5  -4  66 NW7       29.92R WCI  -7
PILOT MOUND      N/A     30  25  80 W6          N/A  WCI  24
THE PAS        PTCLDY    14   3  62 N13G20    30.02R WCI   0
THOMPSON       LGT SNOW   1  -6  71 N13G18    30.01R DRFTSNOWWCI -16
WINNIPEG       MOCLDY    27  23  86 NE5       29.93R WCI  21
LYNN LAKE      CLOUDY     1  -4  78 N7        30.05R WCI -11
CHURCHILL      PTCLDY    -4  -9  77 NE24      30.14R WCI -29
GILLAM         LGT SNOW  -2  -8  78 N13       29.99R WCI -21
$$
                ***SASKATCHEWAN***

CITY           SKY/WX    TMP DP  RH WIND       PRES   REMARKS
ESTEVAN        CLOUDY    32  27  80 W8        29.97R WCI  25
KINDERSLEY     CLOUDY    25  19  80 N14       30.03S WCI  13
LLOYDMINSTER   FLURRIES  23  19  86 SW8       30.01F WCI  14
PRINCE ALBERT  FLURRIES  21  14  73 N8        30.04R WCI  12
REGINA         FLURRIES  32  28  86 N12       29.98R WCI  23
YORKTON        CLOUDY    25  18  74 N15       29.98R WC



USA.gov is the U.S. government's official web portal to all federal, state and local government web resources and services.